GFSFLT1_850_temp_336.txt.gz
Temp
29 28 25 26 24 23 22 21 20 20 18 19 18 18 18 18 18 17 18 19 18 18 19 19 20 20 19 19 19 19 18 18 18
29 28 26 26 24 23 22 21 20 20 19 18 20 19 18 19 18 18 18 18 18 19 19 20 19 19 19 19 19 18 18 18 17
30 28 27 26 25 24 22 22 21 20 19 20 18 19 19 19 19 19 19 19 19 19 19 20 19 19 19 18 18 17 17 16 17
29 28 27 26 25 24 23 22 21 20 20 21 20 19 19 19 19 19 19 19 19 19 19 19 19 18 18 17 17 17 16 16 16
29 28 27 26 25 25 24 23 22 21 21 20 20 20 20 20 19 19 19 19 19 19 19 18 18 17 18 17 16 16 16 16 16
28 27 27 26 26 25 24 23 23 22 21 21 21 21 20 20 20 20 20 20 19 19 18 17 17 18 17 16 16 17 16 16 15
28 27 26 27 26 25 24 23 23 22 22 21 20 20 21 19 18 20 20 20 19 18 17 17 18 17 16 16 16 15 15 15 14
28 28 27 27 27 25 24 23 22 21 21 20 22 21 20 19 18 18 21 20 19 18 17 18 18 17 16 16 16 14 14 13 12
29 28 28 28 27 25 24 23 22 21 21 21 21 20 20 19 21 21 20 19 18 18 19 18 17 16 16 15 14 15 15 12 12
29 29 28 28 27 25 24 23 22 22 21 20 21 22 20 21 22 21 20 20 19 18 17 17 15 15 16 16 15 14 14 13 12
30 29 29 28 27 25 24 24 23 22 21 23 23 23 22 22 22 21 20 19 18 18 17 16 16 16 16 16 15 15 14 15 14
30 29 29 28 27 26 24 24 22 22 23 24 24 23 23 22 21 20 19 19 18 17 17 16 17 16 16 16 16 15 14 13 12
30 30 30 29 28 27 25 23 23 25 25 25 24 24 23 22 21 20 20 19 19 18 17 17 14 16 15 15 16 15 14 12 13
31 31 30 29 28 27 25 26 26 26 26 25 24 24 23 22 21 20 19 19 19 18 17 16 16 16 15 15 15 15 13 12 13
30 30 29 27 27 26 26 27 27 27 26 25 25 24 23 22 21 20 19 19 19 18 18 17 16 15 14 14 14 14 13 13 12
30 29 28 27 26 24 27 28 27 27 27 26 25 24 23 22 20 19 19 20 19 18 18 14 14 13 13 12 13 13 13 13 12
29 28 27 26 26 24 26 29 28 27 28 27 25 24 23 22 21 20 19 19 19 17 16 15 14 14 14 13 12 12 13 13 13
27 28 27 26 26 24 27 29 29 27 27 27 25 24 23 22 20 19 20 17 18 16 16 15 16 15 15 14 13 13 13 12 12
23 27 26 25 25 23 22 26 28 28 28 27 26 24 23 21 19 18 19 17 18 18 17 18 18 15 15 14 14 14 15 13 12
22 24 25 24 24 23 22 26 27 29 29 26 26 25 23 19 17 17 17 16 17 19 18 18 18 17 16 15 17 15 14 13 13

GFSFLT1_850_temp_339.txt.gz
Temp
31 30 29 28 27 25 25 23 22 21 18 18 17 17 17 17 16 17 17 18 18 18 18 18 19 19 19 19 19 19 18 19 18
31 31 30 28 27 25 24 23 22 22 20 19 18 18 17 16 17 17 18 19 19 19 19 19 19 19 20 19 19 19 18 17 17
32 31 29 28 27 26 25 24 23 22 21 20 19 19 19 17 17 18 19 19 19 19 19 19 18 19 18 18 18 18 18 17 17
33 32 30 29 27 26 25 24 23 22 21 21 20 20 20 19 19 19 19 19 19 19 19 19 19 18 18 18 18 18 18 17 16
33 31 30 29 28 27 25 25 24 23 22 21 21 20 20 20 20 20 19 18 19 20 19 19 19 18 18 18 18 16 17 16 14
32 31 30 29 28 27 26 25 24 23 22 20 20 20 20 20 19 18 19 18 19 20 19 19 19 18 18 17 16 17 17 14 14
31 30 29 29 28 27 26 25 24 24 23 22 21 20 20 20 19 19 18 20 21 20 20 19 18 17 17 16 15 15 14 14 14
31 30 29 29 29 27 26 25 24 24 23 23 21 21 20 19 19 19 20 20 20 20 18 17 16 17 15 15 16 15 14 14 14
31 30 30 29 29 27 26 25 24 23 23 23 22 21 20 20 20 19 21 20 19 18 17 17 16 15 17 15 15 16 14 14 14
31 31 30 30 29 27 26 25 23 23 23 22 21 21 21 20 19 19 19 19 18 17 19 17 16 14 15 16 17 16 15 14 14
32 31 30 30 29 27 26 25 24 23 22 21 22 21 20 19 19 20 20 18 18 17 15 15 14 16 16 17 17 16 15 13 13
32 31 30 30 29 28 26 25 24 23 22 21 21 21 20 21 21 21 20 18 18 16 15 14 15 16 16 17 16 15 14 13 13
33 32 31 30 30 29 26 25 24 23 22 21 20 20 20 22 22 21 20 19 18 16 15 15 15 14 16 17 16 15 14 14 14
33 32 32 31 30 29 27 25 24 23 22 21 21 20 21 21 21 20 19 19 18 17 16 15 14 16 16 16 16 15 14 14 14
33 33 32 31 30 29 27 25 24 22 22 22 21 20 21 21 20 20 19 19 18 16 15 15 15 16 15 16 16 15 14 14 14
32 33 32 32 30 29 26 25 24 25 25 22 21 22 23 22 21 19 19 19 19 16 15 14 14 13 14 13 15 15 14 14 14
28 32 32 31 30 29 25 25 23 27 26 26 23 23 23 22 20 18 19 18 18 15 15 15 15 15 15 14 13 14 15 14 14
25 27 31 31 29 28 25 24 24 23 27 27 26 21 21 20 18 19 19 17 17 16 16 16 16 16 16 15 14 14 15 14 13
22 25 28 30 28 28 25 23 22 23 25 27 26 20 18 18 18 18 18 17 17 17 17 16 17 17 17 17 16 15 14 13 13
21 22 26 28 27 27 25 23 23 23 24 26 26 24 20 19 19 18 18 18 17 17 17 17 17 17 17 17 16 15 15 15 14

GFSFLT1_850_temp_342.txt.gz
Temp
30 29 30 28 25 24 23 23 22 20 19 18 18 17 17 17 18 18 18 18 18 18 18 18 19 19 19 19 19 19 19 19 18
31 31 30 28 26 25 24 23 22 21 20 19 18 18 18 18 17 17 18 18 18 19 19 19 19 19 19 19 19 19 18 17 18
32 31 30 29 28 27 25 24 23 22 21 19 18 18 18 18 18 17 18 19 19 19 19 19 19 19 19 18 18 18 17 17 17
33 31 30 28 27 27 26 24 23 22 21 20 20 19 18 18 18 18 19 19 19 19 19 18 19 19 19 18 18 18 18 18 17
33 31 30 28 28 27 26 25 24 23 21 21 21 20 19 19 18 19 19 19 18 18 19 19 18 18 18 17 16 16 16 16 16
33 31 30 28 28 27 26 25 24 23 22 22 21 20 21 20 20 20 19 19 18 19 18 18 18 17 17 19 18 16 17 16 16
32 31 31 30 29 27 26 25 25 24 23 22 21 21 21 21 20 20 19 19 19 19 18 18 17 17 19 18 16 15 16 16 15
32 31 30 30 29 27 26 26 25 24 23 22 22 21 21 21 21 19 19 19 20 18 18 18 18 19 17 17 16 14 14 14 14
32 31 30 30 29 27 26 25 25 24 23 23 22 22 21 20 20 19 19 20 20 19 18 18 19 18 18 15 15 15 14 14 14
32 31 30 30 29 27 26 25 25 24 23 23 22 21 21 20 20 20 20 20 19 19 18 19 17 17 15 15 16 16 15 14 14
32 31 30 30 29 27 26 25 24 23 23 23 22 22 21 21 20 20 21 20 20 18 18 18 15 15 16 17 17 17 15 14 14
31 31 30 30 29 27 27 26 24 24 23 23 22 21 20 20 21 21 21 20 18 17 16 16 15 15 17 18 18 17 15 14 13
32 31 31 30 30 28 27 26 25 23 23 23 22 22 20 20 21 20 21 21 18 17 16 16 15 16 18 18 18 17 15 14 13
33 32 31 31 30 29 27 25 25 24 23 23 23 22 21 21 21 21 21 20 18 17 16 15 15 17 18 18 17 16 15 14 14
32 30 31 31 31 29 28 26 24 23 23 22 22 21 22 22 22 21 20 19 18 17 16 15 16 17 18 18 18 16 15 14 14
29 27 31 31 31 29 28 27 26 24 23 22 22 22 21 21 21 21 20 19 18 17 16 16 17 18 18 18 17 16 16 15 14
28 28 30 32 31 29 28 27 27 26 23 22 21 23 22 21 21 18 18 18 18 18 18 17 18 18 18 18 17 17 16 15 15
25 27 29 30 31 30 29 27 26 26 25 22 21 22 23 22 20 18 18 18 18 18 20 20 20 20 19 16 18 18 18 18 16
24 25 26 30 29 30 28 26 25 25 24 24 23 22 22 22 21 18 18 18 17 17 18 20 18 18 17 16 18 18 19 18 17
22 23 25 27 28 28 28 26 24 26 23 24 23 24 24 23 20 20 20 19 18 19 17 18 17 17 17 17 17 17 18 17 17

GFSFLT1_850_temp_345.txt.gz
Temp
25 27 24 23 26 22 22 21 21 20 20 19 18 18 18 17 17 17 18 18 18 18 18 18 19 19 18 18 19 18 18 18 18
24 25 24 25 24 23 22 21 21 22 21 19 18 19 19 18 17 17 18 18 17 18 18 19 19 18 18 19 19 18 18 18 17
26 26 25 24 23 23 22 22 22 22 21 20 19 18 18 18 18 17 17 17 18 18 18 18 19 19 19 18 18 18 18 18 18
28 27 26 25 25 24 23 23 22 22 21 21 19 19 18 17 17 18 18 18 18 18 18 18 19 18 18 18 17 17 17 17 17
28 28 26 26 25 24 23 23 22 23 21 22 20 19 18 18 18 18 18 18 18 18 19 18 18 18 17 17 17 17 18 17 17
30 28 27 26 26 24 24 24 23 22 22 22 21 20 19 19 19 19 19 19 18 18 18 17 18 18 17 18 17 16 16 17 16
29 28 27 27 26 26 25 24 23 23 22 22 22 20 20 20 20 20 19 19 19 18 18 17 18 17 17 17 16 16 16 17 16
29 28 27 27 26 26 25 24 24 23 23 22 22 22 21 21 20 19 20 19 18 18 18 17 17 17 16 15 16 16 16 15 15
29 29 27 27 26 26 26 25 24 24 23 22 22 21 21 21 21 20 19 19 19 18 17 17 17 16 15 15 15 16 14 15 15
30 30 28 28 27 27 26 25 25 24 23 23 23 22 21 21 20 19 19 19 19 19 18 17 17 16 16 16 15 15 14 14 15
27 30 30 29 28 27 27 26 25 25 24 23 23 22 21 21 20 20 20 19 19 19 18 16 16 17 17 16 16 16 14 15 15
28 30 30 30 29 28 27 26 25 25 24 23 23 22 21 21 21 20 20 19 19 18 17 17 16 17 18 18 17 16 15 15 16
30 29 30 29 29 28 27 26 25 24 24 23 23 22 22 21 21 21 20 19 19 17 17 17 18 18 18 18 18 17 16 16 16
30 29 30 29 28 28 27 26 25 24 23 23 23 22 22 22 22 21 20 19 19 17 17 17 18 18 18 19 18 17 16 16 16
26 29 29 28 28 28 27 27 26 25 24 23 23 22 22 23 22 21 20 19 19 18 17 17 19 19 19 18 18 17 16 16 15
28 29 29 27 26 28 28 28 27 26 25 24 23 22 22 23 22 21 20 19 19 18 17 18 19 19 19 19 19 18 16 16 15
26 28 29 26 28 25 27 28 28 28 26 24 23 23 22 23 22 21 20 19 20 19 18 18 19 19 19 20 19 19 18 17 16
23 24 27 29 30 28 26 28 28 27 26 25 25 24 23 22 21 21 21 20 22 21 20 20 21 21 21 21 21 21 20 19 17
22 22 22 22 25 28 26 29 28 26 26 26 26 24 23 23 22 21 21 21 22 21 19 19 20 20 20 21 21 20 20 19 18
23 22 23 25 24 24 26 26 27 27 26 25 25 25 25 23 23 22 22 21 21 21 19 20 20 20 20 20 21 20 18 19 18